User: anonymous   Login
Location: Unspecified
(0.0000°N, 0.0000°E)
Time: 00:34:49
(UTC+01:00)
Language:

YAOGAN 1 - Orbit

View from above orbital plane
View from above orbital plane
View from above satellite
View from above satellite

Ground track
Ground track

The orbit data is extracted from the following two-line orbital elements,

1 29092U 06015A   17345.93806042 +.00000084 +00000-0 +16983-4 0  9999
2 29092 097.9985 357.4513 0001352 090.8607 269.2762 14.82866765628609
Epoch (UTC): 11 December 2017 22:30:48
Eccentricity: 0.0001352
inclination: 97.9985°
perigee height: 619 km
apogee height: 621 km
right ascension of ascending node: 357.4513°
argument of perigee: 90.8607°
revolutions per day: 14.82866765
mean anomaly at epoch: 269.2762°
orbit number at epoch: 62860

The dashed part of the orbit path shows where the satellite is in the earth's shadow,  

DLR